Time,TemperatureF,DewpointF,PressureIn,WindDirection,WindDirectionDegrees,WindSpeedMPH,WindSpeedGustMPH,Humidity,HourlyPrecipIn,Conditions,Clouds,dailyrainin,SolarRadiationWatts/m^2,SoftwareType,DateUTC
2013-04-25 00:00:00,45.0,9.0,-100.00,WSW,242,5.0,8.0,22,-99.99,,,-99.99,0.000000,,2013-04-25 07:00:00,
2013-04-25 00:10:00,45.0,7.0,-100.00,WSW,249,6.0,8.0,21,-99.99,,,-99.99,0.000000,,2013-04-25 07:10:00,
2013-04-25 00:20:00,44.0,8.0,-100.00,WSW,239,5.0,7.0,23,-99.99,,,-99.99,0.000000,,2013-04-25 07:20:00,
2013-04-25 00:30:00,42.0,8.0,-100.00,SW,236,5.0,7.0,24,-99.99,,,-99.99,0.000000,,2013-04-25 07:30:00,
2013-04-25 00:40:00,43.0,8.0,-100.00,SW,236,5.0,7.0,24,-99.99,,,-99.99,0.000000,,2013-04-25 07:40:00,
2013-04-25 00:50:00,43.0,8.0,-100.00,SW,235,5.0,8.0,23,-99.99,,,-99.99,0.000000,,2013-04-25 07:50:00,
2013-04-25 01:00:00,44.0,8.0,-100.00,WSW,248,6.0,9.0,22,-99.99,,,-99.99,0.000000,,2013-04-25 08:00:00,
2013-04-25 01:10:00,45.0,7.0,-100.00,WSW,250,6.0,9.0,21,-99.99,,,-99.99,0.000000,,2013-04-25 08:10:00,
2013-04-25 01:20:00,43.0,8.0,-100.00,WSW,237,5.0,7.0,23,-99.99,,,-99.99,0.000000,,2013-04-25 08:20:00,
2013-04-25 01:30:00,44.0,8.0,-100.00,WSW,247,6.0,9.0,23,-99.99,,,-99.99,0.000000,,2013-04-25 08:30:00,
2013-04-25 01:40:00,43.0,8.0,-100.00,WSW,238,5.0,8.0,23,-99.99,,,-99.99,0.000000,,2013-04-25 08:40:00,
2013-04-25 01:50:00,43.0,8.0,-100.00,SW,236,5.0,8.0,24,-99.99,,,-99.99,0.000000,,2013-04-25 08:50:00,
2013-04-25 02:10:00,44.0,8.0,-100.00,WSW,247,6.0,9.0,23,-99.99,,,-99.99,0.000000,,2013-04-25 09:10:00,
2013-04-25 02:20:00,44.0,8.0,-100.00,WSW,250,7.0,10.0,22,-99.99,,,-99.99,0.000000,,2013-04-25 09:20:00,
2013-04-25 02:30:00,44.0,9.0,-100.00,WSW,254,7.0,10.0,23,-99.99,,,-99.99,0.000000,,2013-04-25 09:30:00,
2013-04-25 02:40:00,43.0,9.0,-100.00,WSW,258,6.0,9.0,24,-99.99,,,-99.99,0.000000,,2013-04-25 09:40:00,
2013-04-25 03:00:00,41.0,9.0,-100.00,SW,236,4.0,6.0,26,-99.99,,,-99.99,0.000000,,2013-04-25 10:00:00,
2013-04-25 03:10:00,41.0,9.0,-100.00,SW,235,3.0,6.0,26,-99.99,,,-99.99,0.000000,,2013-04-25 10:10:00,
2013-04-25 03:20:00,41.0,9.0,-100.00,WSW,247,3.0,5.0,27,-99.99,,,-99.99,0.000000,,2013-04-25 10:20:00,
2013-04-25 03:30:00,41.0,10.0,-100.00,WSW,254,3.0,6.0,27,-99.99,,,-99.99,0.000000,,2013-04-25 10:30:00,
2013-04-25 03:40:00,41.0,10.0,-100.00,West,264,3.0,6.0,27,-99.99,,,-99.99,0.000000,,2013-04-25 10:40:00,
2013-04-25 04:00:00,41.0,9.0,-100.00,WSW,251,4.0,8.0,26,-99.99,,,-99.99,0.000000,,2013-04-25 11:00:00,
2013-04-25 04:10:00,42.0,9.0,-100.00,WSW,240,5.0,8.0,25,-99.99,,,-99.99,0.000000,,2013-04-25 11:10:00,
2013-04-25 04:20:00,41.0,9.0,-100.00,WSW,246,3.0,7.0,26,-99.99,,,-99.99,0.000000,,2013-04-25 11:20:00,
2013-04-25 04:30:00,40.0,11.0,-100.00,West,279,4.0,6.0,29,-99.99,,,-99.99,0.000000,,2013-04-25 11:30:00,
2013-04-25 05:00:00,38.0,9.0,-100.00,SW,229,3.0,4.0,30,-99.99,,,-99.99,0.000000,,2013-04-25 12:00:00,
2013-04-25 05:10:00,38.0,9.0,-100.00,SW,230,2.0,4.0,29,-99.99,,,-99.99,0.000000,,2013-04-25 12:10:00,
2013-04-25 05:20:00,40.0,8.0,-100.00,SW,216,3.0,4.0,27,-99.99,,,-99.99,0.000000,,2013-04-25 12:20:00,
2013-04-25 05:30:00,39.0,9.0,-100.00,WSW,243,3.0,5.0,29,-99.99,,,-99.99,0.000000,,2013-04-25 12:30:00,
2013-04-25 05:40:00,40.0,9.0,-100.00,WSW,239,5.0,10.0,28,-99.99,,,-99.99,0.000000,,2013-04-25 12:40:00,
2013-04-25 05:50:00,40.0,9.0,-100.00,WSW,244,6.0,11.0,28,-99.99,,,-99.99,0.000000,,2013-04-25 12:50:00,
2013-04-25 07:00:00,44.0,12.0,-100.00,East,85,1.0,3.0,26,-99.99,,,-99.99,131.000000,,2013-04-25 14:00:00,
2013-04-25 07:10:00,44.0,11.0,-100.00,East,87,1.0,3.0,25,-99.99,,,-99.99,164.000000,,2013-04-25 14:10:00,
2013-04-25 07:50:00,47.0,14.0,-100.00,NNE,24,2.0,4.0,26,-99.99,,,-99.99,309.000000,,2013-04-25 14:50:00,
2013-04-25 08:00:00,47.0,15.0,-100.00,North,8,2.0,4.0,28,-99.99,,,-99.99,344.000000,,2013-04-25 15:00:00,
2013-04-25 08:10:00,48.0,15.0,-100.00,NNE,13,3.0,5.0,27,-99.99,,,-99.99,379.000000,,2013-04-25 15:10:00,
2013-04-25 08:20:00,49.0,15.0,-100.00,NNE,29,3.0,5.0,26,-99.99,,,-99.99,416.000000,,2013-04-25 15:20:00,
2013-04-25 08:30:00,49.0,14.0,-100.00,NNE,20,3.0,5.0,25,-99.99,,,-99.99,452.000000,,2013-04-25 15:30:00,
2013-04-25 08:40:00,50.0,15.0,-100.00,NE,38,3.0,6.0,24,-99.99,,,-99.99,486.000000,,2013-04-25 15:40:00,
2013-04-25 08:50:00,51.0,15.0,-100.00,NE,52,1.0,4.0,23,-99.99,,,-99.99,518.000000,,2013-04-25 15:50:00,
2013-04-25 09:00:00,53.0,15.0,-100.00,NNE,24,1.0,4.0,22,-99.99,,,-99.99,550.000000,,2013-04-25 16:00:00,
2013-04-25 09:10:00,54.0,16.0,-100.00,NNE,23,2.0,5.0,22,-99.99,,,-99.99,581.000000,,2013-04-25 16:10:00,
2013-04-25 09:20:00,53.0,16.0,-100.00,NNE,32,3.0,5.0,22,-99.99,,,-99.99,614.000000,,2013-04-25 16:20:00,
2013-04-25 09:30:00,54.0,16.0,-100.00,NNE,30,4.0,7.0,22,-99.99,,,-99.99,645.000000,,2013-04-25 16:30:00,
2013-04-25 09:40:00,54.0,15.0,-100.00,NNE,33,4.0,8.0,21,-99.99,,,-99.99,676.000000,,2013-04-25 16:40:00,
2013-04-25 09:50:00,55.0,15.0,-100.00,NE,36,4.0,7.0,20,-99.99,,,-99.99,705.000000,,2013-04-25 16:50:00,
2013-04-25 10:00:00,56.0,14.0,-100.00,NE,37,4.0,7.0,19,-99.99,,,-99.99,733.000000,,2013-04-25 17:00:00,
2013-04-25 10:10:00,56.0,12.0,-100.00,NE,35,4.0,7.0,17,-99.99,,,-99.99,759.000000,,2013-04-25 17:10:00,
2013-04-25 10:20:00,58.0,13.0,-100.00,NE,44,3.0,6.0,17,-99.99,,,-99.99,786.000000,,2013-04-25 17:20:00,
2013-04-25 10:30:00,59.0,11.0,-100.00,NE,49,3.0,6.0,15,-99.99,,,-99.99,811.000000,,2013-04-25 17:30:00,
2013-04-25 10:40:00,59.0,11.0,-100.00,NNE,26,3.0,7.0,15,-99.99,,,-99.99,834.000000,,2013-04-25 17:40:00,
2013-04-25 10:50:00,60.0,12.0,-100.00,NNW,345,3.0,7.0,15,-99.99,,,-99.99,854.000000,,2013-04-25 17:50:00,
2013-04-25 11:00:00,61.0,13.0,-100.00,NNE,31,3.0,7.0,15,-99.99,,,-99.99,877.000000,,2013-04-25 18:00:00,
2013-04-25 11:10:00,61.0,12.0,-100.00,North,7,4.0,8.0,14,-99.99,,,-99.99,895.000000,,2013-04-25 18:10:00,
2013-04-25 11:20:00,62.0,15.0,-100.00,NNE,27,2.0,6.0,16,-99.99,,,-99.99,911.000000,,2013-04-25 18:20:00,
2013-04-25 11:30:00,63.0,13.0,-100.00,NNE,32,4.0,8.0,14,-99.99,,,-99.99,928.000000,,2013-04-25 18:30:00,
2013-04-25 11:40:00,63.0,13.0,-100.00,NE,39,3.0,6.0,14,-99.99,,,-99.99,943.000000,,2013-04-25 18:40:00,
2013-04-25 11:50:00,64.0,14.0,-100.00,NNW,339,4.0,10.0,14,-99.99,,,-99.99,955.000000,,2013-04-25 18:50:00,
2013-04-25 12:00:00,64.0,14.0,-100.00,NNE,19,5.0,10.0,14,-99.99,,,-99.99,967.000000,,2013-04-25 19:00:00,
2013-04-25 12:40:00,66.0,12.0,-100.00,North,359,5.0,11.0,12,-99.99,,,-99.99,996.000000,,2013-04-25 19:40:00,
2013-04-25 12:50:00,66.0,12.0,-100.00,North,351,4.0,9.0,12,-99.99,,,-99.99,1003.000000,,2013-04-25 19:50:00,
2013-04-25 13:00:00,66.0,12.0,-100.00,NE,48,5.0,8.0,12,-99.99,,,-99.99,1009.000000,,2013-04-25 20:00:00,
2013-04-25 13:10:00,67.0,14.0,-100.00,WNW,287,2.0,6.0,13,-99.99,,,-99.99,969.000000,,2013-04-25 20:10:00,
2013-04-25 13:20:00,68.0,17.0,-100.00,ENE,64,3.0,7.0,14,-99.99,,,-99.99,996.000000,,2013-04-25 20:20:00,
2013-04-25 13:30:00,67.0,15.0,-100.00,ENE,68,7.0,12.0,13,-99.99,,,-99.99,987.000000,,2013-04-25 20:30:00,
2013-04-25 13:40:00,68.0,13.0,-100.00,NE,49,6.0,14.0,12,-99.99,,,-99.99,997.000000,,2013-04-25 20:40:00,
2013-04-25 14:20:00,69.0,14.0,-100.00,North,9,5.0,12.0,12,-99.99,,,-99.99,941.000000,,2013-04-25 21:20:00,
2013-04-25 14:30:00,70.0,15.0,-100.00,North,11,6.0,12.0,12,-99.99,,,-99.99,915.000000,,2013-04-25 21:30:00,
2013-04-25 14:40:00,70.0,15.0,-100.00,NE,38,3.0,7.0,12,-99.99,,,-99.99,900.000000,,2013-04-25 21:40:00,
2013-04-25 15:20:00,71.0,16.0,-100.00,NE,36,5.0,12.0,12,-99.99,,,-99.99,825.000000,,2013-04-25 22:20:00,
2013-04-25 15:30:00,71.0,12.0,-100.00,NNE,24,4.0,12.0,10,-99.99,,,-99.99,802.000000,,2013-04-25 22:30:00,
2013-04-25 15:40:00,71.0,14.0,-100.00,NNE,24,5.0,11.0,11,-99.99,,,-99.99,777.000000,,2013-04-25 22:40:00,
2013-04-25 15:50:00,71.0,14.0,-100.00,ENE,64,4.0,9.0,11,-99.99,,,-99.99,754.000000,,2013-04-25 22:50:00,
2013-04-25 16:00:00,72.0,12.0,-100.00,NE,47,8.0,14.0,10,-99.99,,,-99.99,731.000000,,2013-04-25 23:00:00,
2013-04-25 16:10:00,71.0,12.0,-100.00,ENE,58,8.0,14.0,10,-99.99,,,-99.99,703.000000,,2013-04-25 23:10:00,
2013-04-25 16:20:00,72.0,10.0,-100.00,NNE,23,6.0,15.0,9,-99.99,,,-99.99,677.000000,,2013-04-25 23:20:00,
2013-04-25 16:50:00,72.0,10.0,-100.00,North,358,6.0,13.0,9,-99.99,,,-99.99,603.000000,,2013-04-25 23:50:00,
2013-04-25 17:00:00,72.0,10.0,-100.00,NNE,12,9.0,15.0,9,-99.99,,,-99.99,511.000000,,2013-04-26 00:00:00,
2013-04-25 17:10:00,71.0,9.0,-100.00,NNE,33,9.0,15.0,9,-99.99,,,-99.99,484.000000,,2013-04-26 00:10:00,
2013-04-25 17:20:00,71.0,10.0,-100.00,NNE,31,8.0,15.0,9,-99.99,,,-99.99,534.000000,,2013-04-26 00:20:00,
2013-04-25 17:30:00,71.0,9.0,-100.00,NNE,33,9.0,18.0,9,-99.99,,,-99.99,500.000000,,2013-04-26 00:30:00,
2013-04-25 19:00:00,67.0,11.0,-100.00,North,349,3.0,8.0,11,-99.99,,,-99.99,104.000000,,2013-04-26 02:00:00,
2013-04-25 19:10:00,66.0,10.0,-100.00,NNW,335,3.0,6.0,11,-99.99,,,-99.99,49.000000,,2013-04-26 02:10:00,
2013-04-25 19:20:00,64.0,20.0,-100.00,West,268,5.0,10.0,18,-99.99,,,-99.99,29.000000,,2013-04-26 02:20:00,
2013-04-25 19:30:00,63.0,25.0,-100.00,West,268,7.0,14.0,23,-99.99,,,-99.99,19.000000,,2013-04-26 02:30:00,
2013-04-25 19:40:00,63.0,26.0,-100.00,West,267,8.0,17.0,24,-99.99,,,-99.99,9.000000,,2013-04-26 02:40:00,
2013-04-25 19:50:00,63.0,26.0,-100.00,West,269,7.0,19.0,25,-99.99,,,-99.99,2.000000,,2013-04-26 02:50:00,
2013-04-25 20:00:00,62.0,26.0,-100.00,West,275,7.0,13.0,25,-99.99,,,-99.99,0.000000,,2013-04-26 03:00:00,
2013-04-25 20:10:00,61.0,26.0,-100.00,West,271,6.0,11.0,26,-99.99,,,-99.99,0.000000,,2013-04-26 03:10:00,
2013-04-25 20:20:00,61.0,26.0,-100.00,West,269,6.0,11.0,26,-99.99,,,-99.99,0.000000,,2013-04-26 03:20:00,
2013-04-25 20:30:00,60.0,26.0,-100.00,West,270,6.0,9.0,27,-99.99,,,-99.99,0.000000,,2013-04-26 03:30:00,
2013-04-25 20:40:00,60.0,26.0,-100.00,West,277,5.0,13.0,27,-99.99,,,-99.99,0.000000,,2013-04-26 03:40:00,
2013-04-25 20:50:00,59.0,25.0,-100.00,ESE,110,6.0,9.0,27,-99.99,,,-99.99,0.000000,,2013-04-26 03:50:00,
2013-04-25 21:00:00,60.0,24.0,-100.00,SE,144,4.0,8.0,25,-99.99,,,-99.99,0.000000,,2013-04-26 04:00:00,
2013-04-25 21:10:00,60.0,24.0,-100.00,SSE,157,4.0,6.0,25,-99.99,,,-99.99,0.000000,,2013-04-26 04:10:00,
2013-04-25 21:20:00,58.0,26.0,-100.00,South,179,4.0,8.0,30,-99.99,,,-99.99,0.000000,,2013-04-26 04:20:00,
2013-04-25 21:30:00,56.0,28.0,-100.00,SSW,197,6.0,8.0,34,-99.99,,,-99.99,0.000000,,2013-04-26 04:30:00,
2013-04-25 21:40:00,55.0,27.0,-100.00,SW,230,4.0,7.0,34,-99.99,,,-99.99,0.000000,,2013-04-26 04:40:00,
2013-04-25 21:50:00,56.0,26.0,-100.00,SW,218,3.0,7.0,31,-99.99,,,-99.99,0.000000,,2013-04-26 04:50:00,
2013-04-25 22:00:00,54.0,26.0,-100.00,SSW,208,2.0,6.0,34,-99.99,,,-99.99,0.000000,,2013-04-26 05:00:00,
2013-04-25 22:10:00,54.0,25.0,-100.00,SW,224,4.0,7.0,32,-99.99,,,-99.99,0.000000,,2013-04-26 05:10:00,
2013-04-25 22:20:00,53.0,24.0,-100.00,SW,229,3.0,5.0,33,-99.99,,,-99.99,0.000000,,2013-04-26 05:20:00,
2013-04-25 22:50:00,53.0,25.0,-100.00,SW,221,3.0,5.0,33,-99.99,,,-99.99,0.000000,,2013-04-26 05:50:00,
2013-04-25 23:20:00,54.0,24.0,-100.00,SW,218,4.0,6.0,32,-99.99,,,-99.99,0.000000,,2013-04-26 06:20:00,